ARIRANG-2 (KOMPSAT-2)

Last updated on Fri Jul 10 2026 00:02:49 GMT+0000 (Coordinated Universal Time)

1 29268U 06031A 26190.30250061 .00000004 00000+0 92318-5 0 9993 2 29268 97.8319 13.6797 0014752 9.4198 114.3707 14.64672796 64712
UTC large
Height (km)
Speed (km/s)
/
Latitude / Longitude
Inclination (degrees)
Orbital Period (minutes)
Azimuth
Elevation
Range (km)
Doppler Factor

Next 0 passes for location: London (51.5072 / 0.1276)

No passes found over London.
ARIRANG-2 (KOMPSAT-2)